Flag for Switzerland Weather for the Past 2 Weeks in Affoltern am Albis, Zurich, Switzerland

Now
42 °F

Quite cool.


Feels Like: 38 °F
Forecast: 37 / 66 °F
Wind: 7 mph from Northeast

Location: Zuerich-Fluntern

Current Time: May 5, 2016 at 5:00:58 AM

Latest Report: May 5, 2016 at 4:00 AM


Visibility: N/A

Pressure: 30.24 "Hg

Humidity: 65%

Dew Point: 31 °F

Location of Affoltern am AlbisLocation

Historic Weather in Affoltern am Albis — Graph

°F

Affoltern am Albis Temperature Yesterday

Maximum temperature yesterday: 59 °F (at 3:00 PM)
Minimum temperature yesterday: 39 °F (at 5:00 AM)
Average temperature yesterday: 49 °F

High & Low Weather Summary for the Past Weeks

 TemperatureHumidityPressure
High69 °F (Apr 21, 5:00 PM)99% (May 4, 5:00 AM)30.37 "Hg (May 4, 5:00 AM)
Low31 °F (Apr 28, 7:00 AM)31% (May 4, 7:00 PM)29.69 "Hg (Apr 26, 6:00 PM)
Average47 °F71%30.05 "Hg
* Reported Apr 20 3:00 AM — May 5 3:00 AM, Affoltern am Albis, Weather by CustomWeather, © 2016

Note: Actual official high and low records may vary slightly from our data, if they occured in-between our weather recording intervals... More about our weather records

Advertising

Affoltern am Albis Weather History for the Previous 24 Hours

Scroll right to see more
 ConditionsComfort  
Time TempWeatherWind HumidityBarometerVisibility
3:00 AM
Thu, May 5
43 °FQuite cool.7 mph66%30.25 "HgN/A
2:00 AM45 °FQuite cool.8 mph59%30.26 "HgN/A
1:00 AM45 °FQuite cool.6 mph58%30.27 "HgN/A
12:00 AM46 °FCool.7 mph55%30.27 "HgN/A
11:00 PM
Wed, May 4
46 °FCool.6 mph54%30.28 "HgN/A
10:00 PM49 °FCool.6 mph49%30.27 "HgN/A
9:00 PM50 °FCool.5 mph46%30.26 "HgN/A
8:00 PM54 °FPassing clouds.3 mph39%30.24 "HgN/A
7:00 PM57 °FRefreshingly cool.6 mph31%30.23 "HgN/A
6:00 PM57 °FRefreshingly cool.7 mph33%30.24 "HgN/A
5:00 PM58 °FRefreshingly cool.5 mph32%30.24 "HgN/A
4:00 PM58 °FRefreshingly cool.6 mph34%30.25 "HgN/A
3:00 PM59 °FRefreshingly cool.7 mph36%30.26 "HgN/A
2:00 PM55 °FRefreshingly cool.8 mph33%30.29 "HgN/A
1:00 PM54 °FCool.8 mph46%30.30 "HgN/A
12:00 PM52 °FCool.8 mph51%30.32 "HgN/A
11:00 AM51 °FCool.7 mph63%30.32 "HgN/A
10:00 AM48 °FCool.5 mph75%30.33 "HgN/A
9:00 AM45 °FCool.5 mph83%30.35 "HgN/A
8:00 AM42 °FQuite cool.2 mph93%30.37 "HgN/A
6:00 AM40 °FQuite cool.No wind93%30.36 "HgN/A
5:00 AM39 °FChilly.1 mph99%30.36 "HgN/A
Weather by CustomWeather, © 2016

See weather overviewHow to use our weather pages